Zurück zum Katalog

COSMOS 2188

AktivMilitärLEO
NORAD 21977·PAYLOAD·🇷🇺 Russia

Gestartet Jun 3, 1992 von Plesetsk Cosmodrome

Loading…

Nächste Überflüge (nächste 24 Stunden)

TLE

AktuellSource: Space-Track

Epoche: Sep 14, 2026, 14:02 UTC

1 21977U 92030B   26257.58501257 -.00000016  00000-0 -14556-5 0  9990
2 21977  74.0018 292.1150 0057401 132.5008 302.5153 12.57554859573717

Verfolge COSMOS 2188 in Echtzeit mit AllMySat

Download on the App Store